This is the latest recevied weather packets stored in our database for station/object AI9F. If no packets are shown the sender has not sent any weather packets the latest 10 day(s).
| Time | Temp. | Humidity | Pressure | Rain* | Wind** | Luminosity | Snow |
|---|---|---|---|---|---|---|---|
| 1777773942 | 6.67° C | 77% | 1019.6 hPa | 0 mm | - | 0 W/m² | - |
| 1777773639 | 7.22° C | 77% | 1019.6 hPa | 0 mm | - | 0 W/m² | - |
| 1777773335 | 7.22° C | 77% | 1019.5 hPa | 0 mm | - | 0 W/m² | - |
| 1777773033 | 7.22° C | 75% | 1019.3 hPa | 0 mm | - | 0 W/m² | - |
| 1777772728 | 7.22° C | 72% | 1019.4 hPa | 0 mm | - | 0 W/m² | - |
| 1777772427 | 7.78° C | 72% | 1019.2 hPa | 0 mm | - | 0 W/m² | - |
| 1777772124 | 7.78° C | 72% | 1019.3 hPa | 0 mm | - | 0 W/m² | - |
| 1777771821 | 8.33° C | 70% | 1019.2 hPa | 0 mm | - | 0 W/m² | - |
| 1777771519 | 8.33° C | 68% | 1019.1 hPa | 0 mm | - | 0 W/m² | - |
| 1777771215 | 8.89° C | 68% | 1019.1 hPa | 0 mm | - | 0 W/m² | - |
| 1777770911 | 8.89° C | 63% | 1018.9 hPa | 0 mm | - | 0 W/m² | - |
| 1777770609 | 9.44° C | 62% | 1018.9 hPa | 0 mm | - | 0 W/m² | - |
| 1777770305 | 9.44° C | 62% | 1019.1 hPa | 0 mm | - | 0 W/m² | - |
| 1777770003 | 10° C | 60% | 1019.1 hPa | 0 mm | - | 0 W/m² | - |
| 1777769699 | 10° C | 57% | 1018.9 hPa | 0 mm | - | 1 W/m² | - |
| 1777769396 | 10° C | 57% | 1019.2 hPa | 0 mm | - | 2 W/m² | - |
| 1777769093 | 10.56° C | 56% | 1019.1 hPa | 0 mm | - | 3 W/m² | - |
| 1777768791 | 11.11° C | 54% | 1018.8 hPa | 0 mm | - | 5 W/m² | - |
| 1777768487 | 11.67° C | 53% | 1018.7 hPa | 0 mm | - | 8 W/m² | - |
| 1777768184 | 12.22° C | 49% | 1018.8 hPa | 0 mm | - | 11 W/m² | - |
| 1777767882 | 12.22° C | 48% | 1018.8 hPa | 0 mm | - | 14 W/m² | - |
| 1777767577 | 12.78° C | 47% | 1018.8 hPa | 0 mm | - | 18 W/m² | - |
| 1777767275 | 12.78° C | 46% | 1018.9 hPa | 0 mm | - | 23 W/m² | - |
| 1777766972 | 12.78° C | 44% | 1018.6 hPa | 0 mm | - | 28 W/m² | - |
| 1777766669 | 13.33° C | 43% | 1018.6 hPa | 0 mm | - | 30 W/m² | - |
* Rain latest hour (hover to see other rain measurements)
** Current wind speed in m/s (hover to see current wind gust speed)